Content
SEND FEEDBACK

Daily
Averages
Monthly
Summary
United States of America

ATKINSON, GEORGIA


Home > North America > United States > Georgia
Elevation: 4 feet     Latitude: 31 13N     Longitude: 081 52W

WEATHER
 
SELECT A DAY
Number of Records: 96,793;   Date Range: 5/13/10 - 6/20/14
 
SHARE

PRINT THIS DATA

[ ← Previous Day ]
WEATHER ALMANAC - FEBRUARY 13, 2013
[ Next Day → ]
[ °C ]   °F
Weather ElementAverageHighLow
Temperature68 °F80.6 °F (12:55 pm)51.8 °F (11:35 pm)
Dewpoint59.8 °F71.6 °F (9:55 am)46.4 °F (4:15 pm)
Humidity78.6 %100 % (12:35 am)39 % (1:55 pm)
Barometer29.82 in29.96 in (11:55 pm)29.74 in (3:55 am)
Wind Speed9.1 mph19.6 mph (1:35 pm)
Wind Gust29.9 mph (1:35 pm)
Weather ElementAverage
Visibility9 mi
Wind DirectionWSW (260.6 °)

Weather ElementTotal
Precipitation---
Cooling Degree Days1.2 (Base 65)
Growing Degree Days16.2 (Base 50)
Averaged from 71 records on February 13, 2013
WEATHER CONDITIONS BREAKOUT
WIND DIRECTION BREAKOUT
WEATHER BY HOUR - FEBRUARY 13, 2013
[ °C ]   °F
Local TimeTemperatureDewpointHumidityBarometerVisibilityWind DirectionWind SpeedGust SpeedPrecipitationEventsConditions
12:35 AM62.6 °F62.6 °F100 %29.78 in5.0 miSSW (200°)11.5 mph18.4 mphRainLight Rain
12:55 AM64.4 °F64.4 °F100 %29.81 in4.0 miWNW (290°)8.1 mphRain-ThunderstormRain
1:15 AM64.4 °F64.4 °F100 %29.80 in7.0 miWSW (240°)4.6 mphRainRain
1:35 AM64.4 °F64.4 °F100 %29.79 in5.0 miCalmRain-ThunderstormLight Thunderstorms and Rain
1:55 AM64.4 °F64.4 °F100 %29.78 in7.0 miWest (270°)4.6 mphOvercast
2:15 AM64.4 °F64.4 °F100 %29.78 in7.0 miSW (220°)3.5 mphThunderstormOvercast
2:35 AM64.4 °F64.4 °F100 %29.79 in5.0 miNNW (330°)5.8 mphThunderstormOvercast
2:55 AM64.4 °F64.4 °F100 %29.77 in7.0 miSSW (210°)3.5 mphThunderstormOvercast
3:15 AM64.4 °F64.4 °F100 %29.76 in4.0 miSSW (210°)3.5 mphRain-ThunderstormLight Thunderstorms and Rain
3:35 AM66.2 °F66.2 °F100 %29.75 in5.0 miSSW (210°)6.9 mphRain-ThunderstormLight Thunderstorms and Rain
3:55 AM68.0 °F68.0 °F100 %29.74 in7.0 miSSW (210°)8.1 mphRain-ThunderstormRain
4:15 AM69.8 °F69.8 °F100 %29.76 in7.0 miSW (230°)12.7 mph19.6 mphThunderstormOvercast
4:35 AM69.8 °F69.8 °F100 %29.77 in7.0 miWest (260°)10.4 mph19.6 mphRainRain
4:55 AM69.8 °F69.8 °F100 %29.77 in10.0 miWSW (250°)6.9 mphRainLight Rain
5:15 AM69.8 °F69.8 °F100 %29.76 in7.0 miWest (260°)6.9 mphRain-ThunderstormThunderstorms and Rain
5:35 AM69.8 °F69.8 °F100 %29.77 in10.0 miWSW (250°)5.8 mphRain-ThunderstormLight Thunderstorms and Rain
5:55 AM69.8 °F69.8 °F100 %29.78 in10.0 miWest (260°)8.1 mphOvercast
6:15 AM69.8 °F69.8 °F100 %29.76 in1.2 miWSW (250°)13.8 mph27.6 mphRain-ThunderstormHeavy Thunderstorms and Rain
6:35 AM68.0 °F66.2 °F94 %29.79 in7.0 miWest (270°)10.4 mph23.0 mphRain-ThunderstormRain
6:55 AM66.2 °F64.4 °F94 %29.79 in10.0 miWest (280°)5.8 mphThunderstormOvercast
7:15 AM66.2 °F64.4 °F94 %29.80 in10.0 miWest (280°)5.8 mphOvercast
7:35 AM66.2 °F64.4 °F94 %29.81 in10.0 miWest (270°)5.8 mphThunderstormOvercast
7:55 AM66.2 °F66.2 °F100 %29.81 in10.0 miWest (260°)3.5 mphOvercast
8:15 AM66.2 °F66.2 °F100 %29.82 in10.0 miCalmOvercast
8:35 AM66.2 °F66.2 °F100 %29.82 in7.0 miCalmRainLight Rain
8:55 AM68.0 °F68.0 °F100 %29.83 in10.0 miCalmOvercast
9:15 AM69.8 °F69.8 °F100 %29.83 in10.0 miWest (280°)3.5 mphOvercast
9:35 AM71.6 °F69.8 °F94 %29.83 in10.0 miWNW (290°)3.5 mphMostly Cloudy
9:55 AM73.4 °F71.6 °F94 %29.82 in10.0 miWest (260°)6.9 mphOvercast
10:15 AM73.4 °F71.6 °F94 %29.82 in10.0 miWest (280°)9.2 mphMostly Cloudy
10:35 AM73.4 °F71.6 °F94 %29.83 in10.0 miWNW (290°)8.1 mphScattered Clouds
10:55 AM73.4 °F69.8 °F88 %29.83 in10.0 miNW (310°)13.8 mph17.3 mphOvercast
11:15 AM75.2 °F69.8 °F83 %29.82 in10.0 miWNW (290°)8.1 mphMostly Cloudy
11:35 AM75.2 °F69.8 °F83 %29.82 in10.0 miWest (280°)9.2 mph16.1 mphScattered Clouds
11:55 AM77.0 °F69.8 °F78 %29.80 in10.0 miWNW (300°)12.7 mph17.3 mphClear
12:15 PM78.8 °F68.0 °F69 %29.80 in10.0 miWNW (300°)13.8 mph19.6 mphClear
12:35 PM78.8 °F68.0 °F69 %29.79 in10.0 miWNW (290°)12.7 mph19.6 mphClear
12:55 PM80.6 °F62.6 °F54 %29.78 in10.0 miWest (270°)17.3 mph26.5 mphClear
1:15 PM78.8 °F59.0 °F51 %29.77 in10.0 miWest (260°)13.8 mph24.2 mphClear
1:35 PM80.6 °F59.0 °F48 %29.77 in10.0 miWest (270°)19.6 mph29.9 mphClear
1:55 PM80.6 °F53.6 °F39 %29.76 in10.0 miWest (280°)18.4 mph25.3 mphScattered Clouds
2:15 PM80.6 °F55.4 °F42 %29.75 in10.0 miWest (270°)15.0 mph21.9 mphMostly Cloudy
2:35 PM78.8 °F53.6 °F42 %29.77 in10.0 miWest (280°)15.0 mph21.9 mphScattered Clouds
2:55 PM75.2 °F51.8 °F44 %29.77 in10.0 miWest (280°)11.5 mph20.7 mphMostly Cloudy
3:15 PM73.4 °F51.8 °F47 %29.79 in10.0 miWest (280°)11.5 mph19.6 mphOvercast
3:35 PM73.4 °F50.0 °F44 %29.81 in10.0 miWest (280°)16.1 mph24.2 mphOvercast
3:55 PM73.4 °F48.2 °F41 %29.81 in10.0 miWNW (290°)16.1 mph24.2 mphOvercast
4:15 PM71.6 °F46.4 °F41 %29.84 in10.0 miWNW (290°)10.4 mph24.2 mphOvercast
4:35 PM71.6 °F48.2 °F43 %29.84 in10.0 miWest (280°)13.8 mph18.4 mphOvercast
4:55 PM69.8 °F48.2 °F46 %29.84 in10.0 miWest (270°)13.8 mph19.6 mphOvercast
5:15 PM69.8 °F46.4 °F43 %29.85 in10.0 miWNW (290°)12.7 mph23.0 mphOvercast
5:35 PM68.0 °F48.2 °F49 %29.85 in10.0 miWest (280°)8.1 mph18.4 mphOvercast
5:55 PM68.0 °F50.0 °F52 %29.85 in10.0 miWest (280°)9.2 mph21.9 mphOvercast
6:15 PM68.0 °F50.0 °F52 %29.86 in10.0 miWest (280°)9.2 mph19.6 mphOvercast
6:35 PM68.0 °F50.0 °F52 %29.85 in10.0 miWest (270°)11.5 mph16.1 mphOvercast
6:55 PM66.2 °F50.0 °F56 %29.86 in10.0 miWest (270°)6.9 mphOvercast
7:15 PM66.2 °F48.2 °F52 %29.87 in10.0 miWest (270°)9.2 mphOvercast
7:35 PM66.2 °F50.0 °F56 %29.87 in10.0 miWest (280°)8.1 mphOvercast
7:55 PM64.4 °F50.0 °F59 %29.88 in10.0 miWNW (300°)12.7 mph19.6 mphOvercast
8:15 PM64.4 °F50.0 °F59 %29.88 in10.0 miWNW (300°)12.7 mph18.4 mphOvercast
8:35 PM64.4 °F50.0 °F59 %29.88 in10.0 miWNW (300°)12.7 mph19.6 mphOvercast
8:55 PM62.6 °F51.8 °F68 %29.88 in10.0 miNW (320°)13.8 mphOvercast
9:15 PM59.0 °F51.8 °F77 %29.91 in10.0 miNW (320°)12.7 mph20.7 mphOvercast
9:35 PM57.2 °F51.8 °F82 %29.92 in10.0 miNW (310°)12.7 mph26.5 mphOvercast
9:55 PM55.4 °F53.6 °F94 %29.91 in10.0 miNNW (330°)10.4 mph23.0 mphDrizzle
10:15 PM53.6 °F53.6 °F100 %29.93 in10.0 miWNW (300°)4.6 mphRainLight Rain
10:35 PM53.6 °F53.6 °F100 %29.94 in10.0 miNW (320°)9.2 mphOvercast
10:55 PM53.6 °F50.0 °F88 %29.95 in10.0 miNW (320°)8.1 mphMostly Cloudy
11:15 PM53.6 °F50.0 °F88 %29.93 in10.0 miNNW (330°)6.9 mphMostly Cloudy
11:35 PM51.8 °F50.0 °F94 %29.94 in10.0 miWest (280°)3.5 mphLight Drizzle
11:55 PM51.8 °F50.0 °F94 %29.96 in10.0 miWest (270°)4.6 mphOvercast
Hourly data recorded from KJES, located miles away from Atkinson, Georgia







STORIES FROM OUR PARTNERS